Regional Weather Roundup
Issued by NWS Huntsville, AL

Home | Current Version | Previous Version | Text Only | Print | Product List | Glossary On
Versions: 1 2 3 4 5 6 7 8 9 10 11 12 13 14 15 16 17 18 19 20 21 22 23 24 25 26 27 28 29 30 31 32 33 34 35 36 37 38 39 40 41 42
000
ASUS44 KHUN 280310
RWRHUN

WEATHER ROUNDUP FOR THE TENNESSEE VALLEY
NATIONAL WEATHER SERVICE HUNTSVILLE AL
900 PM CST SAT DEC 27 2014

ALZ001>004-280400-
NORTHWEST ALABAMA

CITY           SKY/WX    TMP DP  RH WIND       PRES   REMARKS
SHOALS AIRPORT LGT RAIN  52  49  89 SE3       30.13F FOG
SHOALS TVA RES   N/A     50 N/A N/A MISG        N/A
$$

ALZ005>007-016-280400-
NORTH CENTRAL ALABAMA

CITY           SKY/WX    TMP DP  RH WIND       PRES   REMARKS
DECATUR AP     RAIN      53  50  89 S6        30.15R FOG
HUNTSVILLE AP  RAIN      55  50  83 S6        30.14R
HUN NWS/UAH      N/A     53  49  84 S6          N/A
MERIDIANVILLE  RAIN      54  45  71 CALM      30.14R
REDSTONE ARSN  LGT RAIN  54  50  87 S8        30.14R
VINEMONT AP    RAIN      51  49  95 S8        30.16R
$$

ALZ008>010-280400-
NORTHEAST ALABAMA

CITY           SKY/WX    TMP DP  RH WIND       PRES   REMARKS
ALBERTVILLE    LGT RAIN  52  52 100 S6        30.15R
FORT PAYNE     CLOUDY    54  45  71 S5        30.17R
SCOTTSBORO AP  LGT RAIN  50  50 100 SW3       30.16F
VALLEY HEAD      N/A     54 N/A N/A MISG        N/A
$$

TNZ076-096-097-280400-
SOUTHEASTERN MIDDLE TENNESSEE

CITY           SKY/WX    TMP DP  RH WIND       PRES   REMARKS
TULLAHOMA      CLOUDY    50  46  87 S8        30.12F
WINCHESTER     CLOUDY    54  46  76 S8        30.13R
$$

...SURROUNDING SITES...

CITY           SKY/WX    TMP DP  RH WIND       PRES   REMARKS
ATLANTA        CLOUDY    55  49  80 S5        30.20R
ANNISTON       LGT RAIN  53  51  93 N6        30.19R FOG
BIRMINGHAM     RAIN      53  51  93 VRB5      30.16F FOG
CHATTANOOGA    CLOUDY    53  44  71 S6        30.17F
CORINTH        MOCLDY    54  52  94 SW5G13    30.07R
DALTON         CLOUDY    54  45  71 CALM      30.20R
GADSDEN        CLOUDY    54  48  82 S8        30.18R
GOLDEN TRNGL   CLOUDY    54  52  94 E12       30.08F
HALEYVILLE     RAIN      50  50 100 S8        30.14F FOG
JACKSON TN     CLOUDY    51  50  96 NW3       30.11R FOG
LEWISBURG      CLOUDY    48  47  97 CALM      30.12S
MEMPHIS        CLOUDY    49  46  90 N15G24    30.12R
MURFREESBORO   CLOUDY    48  48 100 SE5       30.11F
NASHVILLE      CLOUDY    50  48  93 S6        30.11S
OXFORD MS      CLOUDY    52  52 100 NW5       30.09R
ROME           CLOUDY    53  47  79 CALM      30.19R
SAVANNAH       CLOUDY    52  52 100 S9        30.03F
TUPELO         LGT RAIN  54  52  93 S10       30.07F
TUSCALOOSA     LGT RAIN  54  52  93 VRB5      30.14R FOG
$$

...GULF COAST WEATHER...

CITY           SKY/WX    TMP DP  RH WIND       PRES   REMARKS
GULFPORT       LGT RAIN  64  63  96 SE10      30.11R FOG
PASCAGOULA     LGT RAIN  65  64  97 SE8       30.12S
MOBILE         CLOUDY    58  58 100 SE12      30.15R
GULF SHORES    CLOUDY    63  61  93 E13       30.15S
DESTIN         CLOUDY    62  55  77 E9        30.18F
PANAMA CITY    CLOUDY    63  60  89 NE6       30.21S
APPALACHICOLA  MOCLDY    65  55  70 E5        30.21R
$$



USA.gov is the U.S. government's official web portal to all federal, state and local government web resources and services.